Location: Dresden
(51.0500°N, 13.7500°E)
Time: 08:24:28
(UTC+00:00)

ISS - Pass Details

Date: 30 March 2019
Orbit: 408 x 410 km, 51.6° (Epoch: 25 April)

Event Time Altitude Azimuth Distance (km) Brightness Sun altitude
Rises 18:13:40 0° 267° (W) 2,336 1.7 -6.9°
Reaches altitude 10° 18:15:46 10° 268° (W) 1,475 0.5 -7.3°
Maximum altitude 18:19:04 80° 355° (N) 421 -3.7 -7.8°
Drops below altitude 10° 18:22:23 10° 84° (E) 1,474 -1.6 -8.3°
Enters shadow 18:22:25 10° 84° (E) 1,492 -1.5 -8.3°
